Regional Weather Roundup
Issued by NWS Goodland, KS

Home | Current Version | Previous Version | Text Only | Print | Product List | Glossary Off
Versions: 1 2 3 4 5 6 7 8 9 10 11 12 13 14 15 16 17 18 19 20 21 22 23 24 25 26 27 28 29 30 31 32 33 34 35 36 37 38 39 40 41 42 43 44 45 46 47 48 49 50

000
ASUS43 KGLD 251459
RWRGLD

GOODLAND FORECAST AREA HOURLY WEATHER ROUNDUP
NATIONAL WEATHER SERVICE GOODLAND KS
900 AM MDT TUE JUL 25 2017

...OFFICIAL OBSERVATIONS...

CITY           SKY/WX    TMP DP  RH WIND       PRES   REMARKS
GOODLAND KS    SUNNY     79  66  64 S18       30.02S
HILL CITY KS   SUNNY     86  70  58 S17G23    30.02F
IMPERIAL NEB   SUNNY     83  63  50 S10       29.99S
MCCOOK NEB     SUNNY     87  67  51 S14       29.99S
AKRON CO       PTSUNNY   77  59  53 S8        30.04S
BURLINGTON CO  SUNNY     80  66  62 S15       30.05S
LIMON CO       SUNNY     71  62  73 SE6       30.12F
$$

...UNOFFICIAL OBSERVATIONS...

CITY           SKY/WX    TMP DP  RH WIND       PRES   REMARKS
LENORA KS        N/A     83  32  16 MISG        N/A
NORTON KS      SUNNY     86  63  45 S13G21    30.01S
SHARON SPRINGS   N/A     79  67  66 SE20G26     N/A
TRENTON NEB      N/A     84  32  15 SW6         N/A
KIT CARSON CO    N/A     76  65  67 MISG        N/A
YUMA CO        FAIR      79  57  47 S10       30.02S
$$




USA.gov is the U.S. government's official web portal to all federal, state and local government web resources and services.